Weather History for Rome Ciampino, Italy

Change the Weather History Date:

Friday, March 21, 2014

  Actual Average Record
Temperature  
Mean Temperature 56 °F -  
Max Temperature 66 °F 63 °F 71 °F (2012)
Min Temperature 46 °F 44 °F 33 °F (2008)
Degree Days  
Heating Degree Days 9    
Growing Degree Days 6 (Base 50)    
Moisture  
Dew Point 49 °F    
Average Humidity 78    
Maximum Humidity 94    
Minimum Humidity 49    
Precipitation  
Precipitation 0.00 in 0.09 in - ()
Sea Level Pressure  
Sea Level Pressure 30.15 in    
Wind  
Wind Speed 4 mph ()    
Max Wind Speed 12 mph    
Max Gust Speed -    
Visibility 5.2 miles    
Events      
Averages and records for this station are not official NWS values.
T = Trace of Precipitation, MM = Missing Value Source: Averaged Metar Reports

Daily Weather History Graph

Daily Weather History Graph

Search for Another Location

Airport:

Trip Planner

Search our weather history database for the weather conditions in past years. The results will help you decide how hot, cold, wet, or windy it might be!

Date:

Astronomy

Mar. 21, 2014 Rise Set
Actual Time 6:11 AM CET 6:22 PM CET
Civil Twilight 5:43 AM CET 6:50 PM CET
Nautical Twilight 5:11 AM CET 7:23 PM CET
Astronomical Twilight 4:38 AM CET 7:56 PM CET
Moon 11:30 PM CET (3/21) 8:46 AM CET (3/21)
Length of Visible Light 13h 06m
Length of Day
12h 10m
Waning Gibbous, 77% of the Moon is Illuminated
Mar 21
Waning Gibbous
Mar 24
Last Quarter
Mar 30
New
Apr 7
First Quarter
Apr 15
Full

Hourly Weather History & Observations

Time (CET) Temp. Dew Point Humidity Pressure Visibility Wind Dir Wind Speed Gust Speed Precip Events Conditions
12:15 AM 51.8 °F 48.2 °F 88% 30.18 in 5.0 mi Calm Calm - N/A   Unknown
12:45 AM 50.0 °F 46.4 °F 87% 30.18 in 5.0 mi South 2.3 mph - N/A   Unknown
1:00 AM 50 °F 47 °F 86% 30.19 in 5 mi South 2.3 mph - -   Mist
1:15 AM 50.0 °F 46.4 °F 87% 30.18 in 5.0 mi South 3.5 mph - N/A   Unknown
1:45 AM 51.8 °F 46.4 °F 82% 30.18 in 5.0 mi South 4.6 mph - N/A   Unknown
2:15 AM 50.0 °F 46.4 °F 87% 30.18 in 5.0 mi SW 6.9 mph - N/A   Unknown
2:45 AM 50.0 °F 48.2 °F 94% 30.18 in 5.0 mi SSW 5.8 mph - N/A   Unknown
3:15 AM 48.2 °F 46.4 °F 93% 30.18 in 4.3 mi SSE 1.2 mph - N/A   Unknown
3:45 AM 48.2 °F 46.4 °F 93% 30.18 in 4.3 mi SE 1.2 mph - N/A   Unknown
4:00 AM 49 °F 46 °F 84% 30.19 in 4 mi SE 1.2 mph - -   Mist
4:15 AM 48.2 °F 46.4 °F 93% 30.15 in 4.3 mi ENE 3.5 mph - N/A   Unknown
4:45 AM 46.4 °F 44.6 °F 93% 30.15 in 4.3 mi Calm Calm - N/A   Unknown
5:15 AM 46.4 °F 42.8 °F 87% 30.15 in 3.7 mi ESE 2.3 mph - N/A   Unknown
5:45 AM 46.4 °F 42.8 °F 87% 30.15 in 3.7 mi ESE 2.3 mph - N/A   Unknown
6:15 AM 46.4 °F 42.8 °F 87% 30.15 in 3.7 mi Calm Calm - N/A   Unknown
6:45 AM 46.4 °F 42.8 °F 87% 30.15 in 3.7 mi Calm Calm - N/A   Unknown
7:00 AM 46 °F 43 °F 86% 30.18 in 4 mi Calm Calm - -   Mist
7:15 AM 46.4 °F 44.6 °F 93% 30.15 in 3.7 mi NE 1.2 mph - N/A   Unknown
7:45 AM 46.4 °F 44.6 °F 93% 30.15 in 3.7 mi Calm Calm - N/A   Unknown
8:15 AM 51.8 °F 48.2 °F 88% 30.15 in 3.7 mi Calm Calm - N/A   Unknown
8:45 AM 53.6 °F 50.0 °F 88% 30.18 in 3.7 mi Calm Calm - N/A   Unknown
9:15 AM 57.2 °F 51.8 °F 82% 30.18 in 3.7 mi SW 2.3 mph - N/A   Unknown
9:45 AM 60.8 °F 53.6 °F 77% 30.18 in 3.7 mi SSW 2.3 mph - N/A   Unknown
10:00 AM 60 °F 53 °F 72% 30.19 in 4 mi SSW 2.3 mph - -   Mist
10:15 AM 62.6 °F 48.2 °F 59% 30.18 in 5.0 mi South 9.2 mph - N/A   Unknown
10:45 AM 64.4 °F 48.2 °F 56% 30.18 in 3.7 mi SW 9.2 mph - N/A   Unknown
11:15 AM 64.4 °F 48.2 °F 56% 30.18 in 3.7 mi SSW 10.4 mph - N/A   Unknown
11:45 AM 64.4 °F 48.2 °F 56% 30.18 in 5.6 mi SSW 10.4 mph - N/A   Unknown
12:15 PM 66.2 °F 50.0 °F 56% 30.18 in 5.6 mi South 6.9 mph - N/A   Unknown
12:45 PM 64.4 °F 50.0 °F 59% 30.15 in 5.6 mi WSW 11.5 mph - N/A   Partly Cloudy
1:00 PM 65 °F 51 °F 50% 30.17 in 6 mi WSW 11.5 mph - -   Mist
1:15 PM 64.4 °F 51.8 °F 64% 30.15 in 5.6 mi SSW 9.2 mph - N/A   Partly Cloudy
1:45 PM 64.4 °F 48.2 °F 56% 30.15 in 5.6 mi SW 10.4 mph - N/A   Partly Cloudy
2:15 PM 66.2 °F 46.4 °F 49% 30.15 in 6.2 mi SW 9.2 mph - N/A   Partly Cloudy
2:45 PM 62.6 °F 46.4 °F 55% 30.15 in 6.2 mi SW 10.4 mph - N/A   Scattered Clouds
3:15 PM 60.8 °F 51.8 °F 72% 30.12 in 6.2 mi SW 8.1 mph - N/A   Partly Cloudy
3:45 PM 60.8 °F 50.0 °F 68% 30.12 in 6.2 mi SW 8.1 mph - N/A   Mostly Cloudy
4:00 PM 61 °F 50 °F 57% 30.14 in 6 mi SW 8.1 mph - -   Scattered Clouds
4:15 PM 60.8 °F 48.2 °F 63% 30.12 in 6.2 mi SSW 6.9 mph - N/A   Partly Cloudy
4:45 PM 60.8 °F 50.0 °F 68% 30.12 in 6.2 mi SSW 5.8 mph - N/A   Scattered Clouds
5:15 PM 59.0 °F 50.0 °F 72% 30.12 in 6.2 mi South 5.8 mph - N/A   Scattered Clouds
5:45 PM 59.0 °F 51.8 °F 77% 30.12 in 6.2 mi South 4.6 mph - N/A   Scattered Clouds
6:15 PM 59.0 °F 51.8 °F 77% 30.12 in 6.2 mi SW 3.5 mph - N/A   Scattered Clouds
6:45 PM 57.2 °F 51.8 °F 82% 30.09 in 6.2 mi SW 5.8 mph - N/A   Scattered Clouds
7:00 PM 57 °F 52 °F 79% 30.12 in 6 mi SW 5.8 mph - -   Partly Cloudy
7:15 PM 57.2 °F 53.6 °F 88% 30.09 in 6.2 mi SSW 5.8 mph - N/A   Scattered Clouds
7:45 PM 55.4 °F 51.8 °F 88% 30.12 in 6.2 mi South 2.3 mph - N/A   Scattered Clouds
8:15 PM 55.4 °F 51.8 °F 88% 30.12 in 6.2 mi South 3.5 mph - N/A   Scattered Clouds
8:45 PM 55.4 °F 50.0 °F 82% 30.12 in 6.2 mi South 3.5 mph - N/A   Partly Cloudy
9:15 PM 55.4 °F 50.0 °F 82% 30.12 in 6.2 mi South 3.5 mph - N/A   Scattered Clouds
9:45 PM 55.4 °F 50.0 °F 82% 30.12 in 6.2 mi South 3.5 mph - N/A   Partly Cloudy
10:00 PM 55 °F 50 °F 79% 30.15 in 6 mi South 3.5 mph - -   Scattered Clouds
10:15 PM 53.6 °F 50.0 °F 88% 30.12 in 6.2 mi South 3.5 mph - N/A   Partly Cloudy
10:45 PM 53.6 °F 50.0 °F 88% 30.12 in 6.2 mi South 2.3 mph - N/A   Partly Cloudy
11:15 PM 53.6 °F 50.0 °F 88% 30.12 in 6.2 mi SSW 3.5 mph - N/A   Scattered Clouds
11:45 PM 53.6 °F 50.0 °F 88% 30.12 in 6.2 mi South 2.3 mph - N/A   Scattered Clouds